Hobart, OK

12:46 PM CST on February 10, 2016 (GMT -0600)
Hobart Municipal

Weather History for KHBR - December, 2012

Change the Weather History Date:

Thursday, December 20, 2012

  Actual Average Record
Temperature  
Mean Temperature 36 °F -  
Max Temperature 48 °F 47 °F 77 °F (2010)
Min Temperature 24 °F 25 °F 16 °F (1996)
Degree Days  
Heating Degree Days 28    
Moisture  
Dew Point 10 °F    
Average Humidity 37    
Maximum Humidity 61    
Minimum Humidity 13    
Precipitation  
Precipitation 0.00 in - - ()
Sea Level Pressure  
Sea Level Pressure 30.31 in    
Wind  
Wind Speed 24 mph (NW)    
Max Wind Speed 40 mph    
Max Gust Speed 50 mph    
Visibility 10 miles    
Events      
Averages and records for this station are not official NWS values.
T = Trace of Precipitation, MM = Missing Value Source: NWS Daily Summary

Daily Weather History Graph

Daily Weather History Graph

Search for Another Location

Airport or City:

Trip Planner

Search our weather history database for the weather conditions in past years. The results will help you decide how hot, cold, wet, or windy it might be!

Date:

Astronomy

Dec. 20, 2012 Rise Set
Actual Time 7:40 AM CST 5:28 PM CST
Civil Twilight 7:11 AM CST 5:56 PM CST
Nautical Twilight 6:40 AM CST 6:28 PM CST
Astronomical Twilight 6:09 AM CST 6:59 PM CST
Moon 12:36 PM CST (12/20) 12:40 AM CST (12/20)
Length of Visible Light 10h 44m
Length of Day
9h 48m
First Quarter, 55% of the Moon is Illuminated
Dec 20
First Quarter
Dec 28
Full
Jan 4
Last Quarter
Jan 11
New
Jan 18
First Quarter

Hourly Weather History & Observations

Time (CST) Temp. Windchill Dew Point Humidity Pressure Visibility Wind Dir Wind Speed Gust Speed Precip Events Conditions
12:53 AM 36.0 °F 21.3 °F 21.9 °F 57% 29.99 in 10.0 mi NNW 40.3 mph 49.5 mph N/A   Overcast
1:53 AM 35.1 °F 21.2 °F 21.9 °F 59% 30.05 in 10.0 mi NNW 33.4 mph 44.9 mph N/A   Overcast
2:53 AM 34.0 °F 19.9 °F 21.9 °F 61% 30.12 in 10.0 mi NNW 32.2 mph 47.2 mph N/A   Clear
3:53 AM 33.1 °F 20.9 °F 19.9 °F 59% 30.14 in 10.0 mi NW 21.9 mph 31.1 mph N/A   Clear
4:53 AM 33.1 °F 19.6 °F 15.1 °F 48% 30.17 in 10.0 mi NNW 27.6 mph 36.8 mph N/A   Clear
5:53 AM 32.0 °F 19.2 °F 12.2 °F 44% 30.21 in 10.0 mi NNW 23.0 mph 31.1 mph N/A   Clear
6:53 AM 30.9 °F 17.8 °F 12.9 °F 47% 30.26 in 10.0 mi NNW 23.0 mph 31.1 mph N/A   Clear
7:53 AM 28.9 °F 16.5 °F 12.9 °F 51% 30.30 in 10.0 mi NW 18.4 mph - N/A   Clear
8:53 AM 32.0 °F 19.8 °F 12.9 °F 45% 30.35 in 10.0 mi NW 20.7 mph - N/A   Clear
9:53 AM 36.0 °F 24.7 °F 10.9 °F 36% 30.38 in 10.0 mi NNW 21.9 mph - N/A   Clear
10:53 AM 39.9 °F 28.6 °F 5.0 °F 23% 30.38 in 10.0 mi NNW 28.8 mph 35.7 mph N/A   Clear
11:53 AM 43.0 °F 34.2 °F 3.9 °F 20% 30.38 in 10.0 mi NNW 20.7 mph 28.8 mph N/A   Clear
12:53 PM 46.0 °F 38.0 °F 1.9 °F 16% 30.37 in 10.0 mi NNW 21.9 mph 27.6 mph N/A   Clear
1:53 PM 48.0 °F - -0.0 °F 14% 30.36 in 10.0 mi NNW 17.3 mph 25.3 mph N/A   Clear
2:53 PM 48.9 °F - -0.0 °F 13% 30.36 in 10.0 mi North 20.7 mph 26.5 mph N/A   Clear
3:53 PM 48.9 °F - -0.0 °F 13% 30.37 in 10.0 mi NNW 19.6 mph 25.3 mph N/A   Clear
4:53 PM 46.0 °F 41.4 °F 5.0 °F 19% 30.37 in 10.0 mi NW 9.2 mph - N/A   Clear
5:53 PM 39.0 °F 35.7 °F 5.0 °F 24% 30.39 in 10.0 mi West 4.6 mph - N/A   Clear
6:53 PM 36.0 °F 33.3 °F 6.1 °F 29% 30.39 in 10.0 mi West 3.5 mph - N/A   Clear
7:53 PM 33.1 °F 26.9 °F 7.0 °F 34% 30.40 in 10.0 mi WSW 6.9 mph - N/A   Clear
8:53 PM 30.0 °F 24.1 °F 7.0 °F 38% 30.41 in 10.0 mi WSW 5.8 mph - N/A   Clear
9:53 PM 30.0 °F 22.4 °F 9.0 °F 41% 30.41 in 10.0 mi SW 8.1 mph - N/A   Clear
10:53 PM 25.0 °F 15.5 °F 10.0 °F 53% 30.42 in 10.0 mi WSW 9.2 mph - N/A   Clear
11:53 PM 24.1 °F 17.0 °F 10.0 °F 55% 30.41 in 10.0 mi West 5.8 mph - N/A   Clear